Location: Bailleul
(50.3375°N, 2.8513°E)
Time: 03:50:20
(UTC+00:00)

SL-16 R/B - Pass Details

Date: 19 April 2021
Orbit: 840 x 849 km, 71.0° (Epoch: 09 May)

Event Time Altitude Azimuth Distance (km) Brightness Sun altitude
Rises 21:56:50 0° 327° (NNW) 3,424 6.8 -23.6°
Reaches altitude 10° 21:59:22 10° 322° (NW) 2,484 5.7 -23.8°
Maximum altitude 22:04:49 48° 250° (WSW) 1,095 2.7 -24.2°
Enters shadow 22:06:05 41° 212° (SSW) 1,212 2.7 -24.3°
